Theta_e
334 333 332 331 332 332 331 330 329 329 329 330 331 333 333 334 334 332 329 328 327 326 325 323 322 322 320 319 319 320 320 321 322 322 322 322 322 322 322 322 321 321 320 320 321 321 321 320 319 318 318 318 318 318 317 317 317 317 318 318 318 318 318 318 318 318 318 319 319 319 319 319 319 319 319 318 318 318 318 319 317 319 322 323 324
332 331 331 331 331 330 330 330 329 328 328 329 329 330 330 331 331 330 328 327 326 326 325 324 323 323 322 321 320 319 319 320 321 321 322 322 322 322 322 321 321 321 320 320 320 319 320 320 319 317 317 317 317 317 317 316 316 316 316 317 318 318 318 317 317 317 317 318 318 319 318 318 318 318 319 318 318 318 317 317 318 319 321 321 322
329 329 329 330 330 329 329 329 329 328 328 329 328 327 327 328 328 328 327 327 327 326 325 324 324 323 321 321 321 318 318 319 320 321 322 320 320 322 321 321 320 320 320 319 319 318 318 319 319 318 317 317 316 316 316 315 315 315 316 316 317 317 317 317 317 317 317 317 317 318 318 318 318 318 318 318 318 318 317 317 319 320 320 320 321
326 326 327 327 328 328 328 328 328 328 327 328 327 326 326 325 325 325 325 326 326 326 325 324 324 323 322 322 320 317 317 318 320 322 322 320 319 320 321 321 320 320 319 319 318 318 317 318 318 318 317 317 316 316 315 315 315 315 316 316 316 316 316 317 316 316 316 316 317 317 317 318 318 317 318 318 318 318 317 317 319 320 320 320 320
324 325 325 325 326 327 327 327 327 326 326 326 326 326 325 325 325 324 324 324 324 325 325 324 324 324 323 322 319 317 318 319 320 321 320 320 320 320 319 319 319 319 319 318 318 317 317 317 317 317 316 316 315 315 315 315 315 315 315 315 315 316 315 316 316 315 315 316 316 316 317 317 317 317 317 317 317 317 317 318 318 319 319 319 319
322 322 323 323 323 323 324 325 325 325 325 325 325 325 325 324 324 323 323 323 322 322 323 323 323 323 322 322 320 319 320 321 320 320 320 320 320 319 319 318 318 318 317 317 317 317 317 317 316 316 315 315 314 315 314 314 314 314 314 315 315 315 315 315 315 315 315 315 315 315 316 316 316 316 316 316 317 317 317 317 317 317 318 318 319
319 319 320 320 320 320 321 322 323 323 323 323 323 323 323 323 323 322 322 322 321 321 321 322 321 321 321 321 320 320 321 321 320 320 319 319 318 318 318 317 317 317 317 317 316 316 316 316 316 315 315 314 314 314 314 314 314 313 314 314 314 314 314 314 314 314 314 314 314 314 314 314 315 315 315 316 317 318 317 316 316 317 318 319 319
318 318 318 318 318 318 319 319 320 320 321 321 321 321 320 320 320 320 320 320 319 319 319 319 319 319 319 319 319 319 318 319 319 319 317 316 316 316 316 316 316 316 316 316 316 317 316 315 315 315 315 314 314 314 313 313 313 313 313 313 313 313 313 313 313 313 313 313 313 313 313 313 314 314 315 316 317 317 317 317 317 318 318 318 318
316 316 317 318 317 317 317 318 318 318 318 318 318 318 317 317 317 316 317 317 316 316 316 316 316 316 316 316 316 316 316 316 317 316 316 316 316 316 315 316 316 315 315 315 316 316 316 315 315 315 314 314 313 313 312 312 312 312 312 313 312 312 312 312 312 312 312 312 313 313 313 313 314 314 314 315 316 317 316 316 317 317 317 317 317
315 315 315 316 316 316 316 317 317 316 317 317 316 316 316 316 315 315 315 315 314 314 314 314 315 315 315 316 315 316 315 314 313 313 313 313 313 313 313 313 313 314 314 314 314 314 314 314 314 314 313 313 312 311 311 311 310 310 310 311 311 312 311 311 311 311 311 312 312 312 312 312 313 313 314 314 315 316 316 316 316 316 316 317 318
314 314 314 315 315 315 315 316 316 315 315 315 315 315 315 315 315 315 314 314 313 313 313 313 313 313 313 313 314 314 313 312 310 310 310 310 309 309 310 310 310 311 312 312 313 313 313 314 314 314 313 313 312 312 311 310 310 308 308 308 309 310 311 311 311 311 311 311 311 311 312 312 312 312 313 313 314 315 315 315 315 315 316 317 318
314 314 314 314 314 314 314 315 315 315 315 315 314 315 315 315 314 314 314 314 313 312 312 312 312 311 310 310 310 311 311 309 307 307 307 307 307 306 306 307 308 309 310 311 311 312 312 312 313 313 313 313 313 313 312 312 311 310 308 308 307 308 308 309 310 311 311 311 311 311 312 312 311 312 312 312 313 314 314 314 314 314 315 316 317
313 313 313 313 313 313 313 314 314 314 314 314 314 314 314 313 313 312 312 311 311 310 310 310 310 309 309 308 308 309 309 308 306 306 306 305 304 303 303 305 306 307 308 309 309 310 311 311 311 312 312 312 312 312 312 312 312 311 311 310 309 308 307 307 308 309 310 310 310 311 311 311 311 312 312 312 312 312 313 313 313 312 313 315 316
312 312 312 312 312 312 312 313 314 314 314 313 313 312 312 311 311 310 309 309 309 309 309 308 308 308 308 307 307 307 307 307 305 305 305 304 303 301 301 303 304 305 306 306 307 308 309 309 310 310 310 310 311 311 311 311 311 311 312 312 312 311 310 308 307 308 308 308 309 309 310 310 311 312 312 311 311 311 312 312 312 312 312 313 315
312 312 312 311 311 311 312 312 312 313 312 312 311 310 310 310 309 308 308 308 308 308 307 307 307 307 307 307 307 307 307 306 304 304 303 303 301 300 300 301 303 303 304 305 305 306 307 307 308 308 309 309 309 309 309 310 310 311 311 312 312 313 312 311 310 308 307 307 308 309 309 309 310 311 311 311 310 310 311 311 312 312 312 312 313
312 311 311 311 311 311 311 311 311 311 310 310 310 309 308 308 307 307 307 306 307 307 306 306 306 306 306 306 306 307 307 306 305 304 303 303 301 301 302 302 303 304 304 304 305 305 306 306 307 307 307 307 307 307 307 308 309 310 310 310 311 311 312 312 312 310 309 309 310 310 309 309 309 310 310 310 310 310 311 311 311 312 312 312 312
311 311 310 310 310 310 310 310 309 309 309 309 308 308 307 307 306 306 306 306 306 305 305 305 305 305 305 305 305 306 306 306 305 304 304 303 302 302 303 303 304 304 305 305 305 306 306 306 306 306 306 306 306 307 306 306 307 308 308 309 309 310 310 310 310 310 310 310 310 310 310 310 310 310 310 310 310 310 311 311 310 310 312 312 312
310 310 310 309 309 309 308 308 308 308 308 308 307 307 307 306 306 306 306 305 305 305 305 305 304 305 305 304 304 304 304 304 304 303 303 303 302 302 302 303 304 304 305 305 305 305 306 306 306 306 307 307 307 307 307 306 306 307 307 307 308 308 309 309 309 309 309 309 309 309 309 309 309 310 310 310 310 310 310 310 309 309 311 312 312
309 309 309 308 308 308 308 308 308 308 308 307 307 307 306 306 306 305 305 305 305 304 304 304 304 304 304 304 304 303 303 303 303 303 302 302 302 302 302 303 303 304 304 305 305 305 306 306 306 306 306 307 307 307 307 307 307 307 307 307 307 308 308 308 308 309 309 309 309 309 309 309 309 309 309 309 309 308 308 308 308 309 310 311 312
309 309 308 308 308 307 307 307 308 308 308 307 307 306 306 305 305 304 304 304 304 304 304 304 303 303 303 303 303 303 303 303 303 302 302 302 301 302 302 302 303 304 304 305 305 305 305 306 306 306 306 306 306 306 306 306 306 306 306 307 307 307 308 308 308 308 308 309 309 309 309 309 310 310 310 310 309 307 306 307 308 309 310 311 311
309 309 308 308 308 307 307 307 308 308 307 306 306 305 305 305 304 304 304 304 304 304 303 303 303 302 302 302 302 303 303 303 303 302 302 302 302 302 302 302 303 304 304 304 304 305 305 305 305 305 305 305 305 305 305 305 305 305 305 306 306 306 306 307 307 308 308 309 308 308 309 309 309 310 310 310 310 310 309 308 308 309 310 310 311
309 308 308 307 307 307 307 307 307 307 306 306 305 305 305 304 304 304 303 303 303 303 302 302 302 302 302 302 302 302 302 302 302 302 302 302 302 302 302 302 303 303 303 303 303 303 303 303 303 303 303 303 303 303 303 303 303 303 304 304 304 304 304 305 306 306 307 308 308 308 308 309 309 309 310 310 310 311 311 311 310 310 310 310 310
307 307 306 306 306 306 306 306 306 306 305 305 305 304 304 304 303 303 303 303 302 302 301 302 302 302 302 302 302 302 302 302 302 302 302 302 302 302 302 302 303 303 302 302 302 302 302 302 302 302 302 301 301 301 300 300 300 301 302 302 302 302 302 303 304 305 306 306 307 307 308 308 309 309 309 310 310 310 311 311 311 311 311 311 311
306 306 306 306 306 305 305 305 305 304 304 304 304 304 304 303 303 302 302 301 301 301 302 302 302 302 302 302 301 302 301 302 302 302 302 301 301 301 301 301 302 301 300 299 300 300 300 301 300 300 299 299 298 298 298 298 298 298 299 300 300 300 301 302 303 303 304 305 306 307 307 308 308 309 309 309 309 310 310 310 311 311 312 312 312
305 305 305 306 305 305 304 304 304 304 304 304 303 303 303 302 302 301 301 301 302 302 302 301 301 301 301 301 301 301 301 301 301 301 301 301 300 300 300 299 299 299 298 298 298 298 298 297 297 297 297 297 297 297 297 297 297 297 297 297 298 298 299 300 301 302 303 304 305 306 306 307 308 308 308 308 309 309 310 310 310 311 311 312 312
305 304 305 305 304 304 304 304 304 303 303 303 302 302 302 301 301 301 301 302 301 301 301 300 301 300 300 300 300 300 300 300 300 300 300 300 300 299 299 298 298 297 296 296 296 296 296 296 296 295 295 295 295 296 296 296 297 296 296 296 297 297 298 299 300 301 302 303 304 305 305 306 307 307 307 308 308 309 309 309 310 310 311 311 312
303 304 304 304 304 304 303 303 303 302 302 302 301 301 301 301 301 301 301 301 300 300 299 299 299 299 298 298 298 299 299 299 299 299 299 298 298 297 296 297 296 296 296 296 295 295 295 295 295 295 295 294 294 294 295 295 295 295 296 296 297 297 298 298 299 300 301 302 303 304 304 305 306 306 307 307 308 308 309 309 309 309 310 311 311
303 303 303 303 303 302 302 302 302 302 301 301 301 301 301 301 301 301 300 299 299 298 297 297 297 297 297 297 297 298 298 298 298 298 296 295 294 294 294 295 295 295 294 294 294 294 294 294 294 294 294 294 294 294 294 295 295 295 295 296 296 297 297 298 298 299 300 300 301 302 303 304 305 305 306 307 307 307 308 308 309 309 309 310 311
303 302 302 302 302 301 301 301 301 301 301 301 301 301 300 300 299 299 298 298 297 295 295 295 295 295 295 295 296 296 296 296 296 295 294 293 292 291 292 292 292 292 292 292 292 292 292 292 293 293 293 294 294 294 295 295 295 296 296 296 296 297 297 297 298 298 299 299 300 301 302 303 304 304 305 306 306 307 307 308 308 309 309 309 311
302 301 301 301 301 301 300 300 300 300 300 300 300 300 299 298 298 297 297 296 295 294 293 293 293 293 293 293 293 293 293 293 293 292 291 291 290 290 290 290 290 290 290 290 290 291 291 292 292 293 293 293 294 294 294 295 295 296 296 296 296 296 297 297 297 298 298 299 299 300 301 302 303 304 304 305 305 306 307 307 308 308 309 309 310
301 301 301 301 300 299 299 299 299 299 299 299 298 298 298 297 297 297 296 295 295 293 292 292 291 291 291 291 292 292 291 291 291 290 290 290 289 289 289 289 289 290 289 290 290 291 291 292 292 292 293 293 293 294 294 295 295 295 295 296 296 296 296 296 297 297 297 298 298 299 300 301 302 302 303 304 304 305 306 306 307 308 308 309 309
301 301 300 300 299 298 298 298 298 298 298 298 297 297 296 297 297 297 296 295 295 294 292 291 291 291 290 290 291 291 291 290 290 289 289 289 289 289 289 289 289 289 289 290 290 291 291 292 292 293 293 293 293 294 294 294 295 295 295 295 295 296 296 296 296 297 297 297 298 298 299 299 300 301 302 303 303 304 305 306 306 307 308 308 309
300 300 299 299 298 298 297 297 297 297 297 297 296 296 296 297 297 297 297 296 295 294 293 292 291 290 290 290 290 290 289 289 288 288 289 289 289 289 289 289 289 289 289 290 290 291 291 292 292 292 293 293 293 293 293 294 294 294 294 295 295 295 296 296 296 296 297 297 297 298 298 298 299 300 300 301 302 303 304 305 306 307 307 308 308
299 298 298 297 298 298 298 297 298 297 296 296 295 296 296 297 297 297 296 296 295 294 294 293 291 290 290 290 289 289 289 288 288 288 288 288 288 288 288 289 290 290 290 291 291 291 292 292 292 292 293 293 293 293 294 294 294 294 294 294 295 295 295 296 296 296 296 296 297 297 298 298 298 299 300 300 301 301 302 303 305 306 307 308 308
298 298 297 297 298 298 298 297 297 297 295 295 295 295 295 296 295 295 295 295 294 294 294 293 292 291 290 290 289 289 288 288 288 288 288 288 288 288 289 291 291 291 291 291 291 291 292 292 292 292 292 293 293 293 294 294 294 294 294 294 295 295 295 295 296 296 296 296 296 297 297 298 298 298 299 300 300 301 301 302 303 305 306 307 308
298 299 298 298 298 298 297 296 296 295 294 294 294 294 294 294 294 293 293 293 293 293 293 293 291 290 290 289 289 288 288 288 288 288 288 288 288 288 289 291 291 291 291 291 291 291 291 291 291 291 292 292 292 292 293 293 293 294 294 294 295 295 295 295 295 296 296 296 297 297 297 297 298 298 298 299 300 300 301 302 303 304 305 306 307
298 298 297 296 296 296 296 296 294 293 293 293 293 293 292 292 292 292 292 292 292 292 292 292 291 290 290 289 288 288 288 288 288 288 288 288 288 288 289 289 290 290 290 290 290 290 290 290 290 291 291 291 291 292 292 292 292 293 293 294 294 294 295 295 295 296 296 296 296 297 297 297 298 298 298 299 299 300 300 301 302 303 304 305 306
298 295 293 292 293 294 294 294 293 292 292 292 292 291 291 291 291 291 291 291 291 292 292 292 291 290 290 289 287 287 287 287 287 288 288 288 288 288 288 288 289 289 289 289 289 290 290 290 290 290 290 290 291 291 291 291 292 292 293 293 293 294 294 295 295 296 296 296 296 297 297 297 298 298 299 299 299 300 300 301 302 303 304 304 305
297 294 291 291 292 293 292 292 291 291 291 291 291 291 291 290 290 290 291 290 290 291 291 291 291 290 289 287 286 286 285 286 287 287 287 287 287 287 287 288 288 288 288 288 289 289 289 289 289 290 290 290 290 290 290 290 291 291 291 292 293 293 294 294 294 295 296 296 296 297 297 298 298 299 299 299 299 299 300 300 301 302 304 304 305
296 294 292 291 291 292 291 291 290 290 290 291 291 290 290 290 290 290 290 289 289 290 290 290 290 289 288 286 285 285 285 286 287 287 287 287 287 287 287 287 287 287 287 288 288 288 288 289 289 289 289 290 290 290 290 290 290 290 291 291 292 292 293 293 294 294 295 296 296 297 298 298 298 299 299 300 299 299 299 300 301 302 303 304 305
294 294 293 291 291 291 291 291 290 290 290 290 290 290 290 290 290 289 289 289 289 289 289 289 289 288 287 286 284 284 285 286 286 286 286 286 286 286 287 287 286 287 287 287 287 288 287 288 288 289 289 289 289 289 290 290 290 290 291 291 292 292 292 293 293 294 295 296 296 297 297 298 299 299 299 300 300 299 299 299 300 301 302 304 304
293 293 292 291 291 291 291 291 291 291 291 290 290 290 290 290 290 289 289 289 289 289 289 289 288 288 287 286 285 285 285 286 286 285 286 286 286 286 286 286 286 286 286 286 287 287 286 287 287 288 288 289 289 289 289 289 289 290 290 291 291 292 293 293 294 294 294 296 296 297 297 298 298 299 299 300 300 300 299 299 299 301 302 303 304
292 292 291 291 291 291 291 291 291 291 291 290 290 290 290 290 290 290 289 289 289 289 289 289 288 288 288 287 286 286 286 286 286 285 286 286 286 286 286 285 285 285 285 285 285 285 286 286 287 287 288 288 288 288 289 289 289 289 290 290 291 292 293 294 295 295 295 296 296 297 297 297 298 298 298 299 300 300 300 299 299 300 302 303 304
292 292 292 291 291 291 291 291 291 291 290 290 290 290 290 290 290 290 289 289 289 288 289 288 288 288 288 287 287 286 286 286 286 285 286 286 285 285 285 285 284 284 284 284 284 285 285 285 286 286 287 287 287 288 288 288 288 289 289 290 291 292 294 295 296 296 296 296 297 297 297 298 298 298 298 299 300 300 300 299 300 301 302 303 304
293 292 292 292 292 292 291 291 291 291 291 291 291 291 290 290 290 290 289 289 289 288 288 288 288 287 287 287 287 286 286 286 286 286 285 285 285 285 285 284 284 283 284 284 284 284 284 284 285 285 286 286 287 287 287 288 288 288 289 290 292 293 294 295 296 297 297 297 297 297 298 298 298 298 299 299 299 299 300 300 300 301 303 304 304
293 292 292 292 292 292 292 291 291 291 291 291 291 291 291 290 290 290 289 289 288 288 288 288 288 287 287 287 287 286 286 286 286 285 285 285 285 284 284 283 283 283 283 283 283 283 283 283 284 284 285 285 286 286 287 287 288 288 289 290 292 293 295 297 298 298 298 298 298 297 298 298 298 298 299 299 299 299 299 300 300 301 303 304 305
293 293 292 292 292 292 292 291 291 291 291 291 290 290 290 290 290 289 289 288 288 288 288 288 287 287 287 286 286 286 286 286 286 285 285 285 284 284 284 283 283 283 283 283 283 282 282 282 283 283 284 285 285 286 287 287 287 288 289 290 291 293 295 298 299 298 297 297 297 297 297 298 298 298 298 298 299 299 299 300 301 302 303 304 305
293 292 292 292 292 292 292 291 291 291 291 291 290 290 290 290 289 289 289 288 288 288 288 288 287 287 286 286 286 286 286 286 285 285 285 285 284 284 284 283 282 282 282 283 282 282 281 281 282 282 283 284 285 286 286 286 287 287 288 289 291 292 295 297 298 298 297 297 297 297 297 298 298 298 298 298 299 299 300 301 302 303 304 304 304
292 292 292 292 291 291 291 291 291 291 290 290 290 290 289 289 289 289 288 288 288 288 288 287 287 287 286 286 286 285 285 285 285 285 285 285 284 284 284 283 282 282 282 282 282 282 281 281 281 282 282 283 284 285 285 285 286 287 288 289 290 292 294 297 298 298 297 297 297 297 298 298 298 298 298 299 299 300 300 301 302 303 304 304 305
292 292 291 291 291 291 291 291 291 290 290 290 290 289 289 289 289 288 288 288 288 287 287 287 287 286 286 286 286 285 285 285 285 285 284 284 284 284 284 283 282 282 281 281 281 281 281 281 281 281 282 282 283 284 285 285 285 286 288 289 291 292 294 297 298 298 297 297 297 298 298 299 299 299 299 299 300 300 301 301 302 303 304 304 305
292 292 291 291 291 291 290 290 290 290 289 289 289 289 288 288 288 288 287 287 287 287 286 286 286 286 286 285 285 285 285 284 284 284 284 284 284 283 283 283 283 282 281 281 281 281 281 280 280 281 281 282 283 284 284 284 285 286 287 289 291 293 295 297 299 299 299 298 298 298 299 299 299 300 300 300 300 301 301 301 303 304 305 305 305
Wind_Speed
13 13 14 15 15 12 8 7 8 9 10 12 14 16 17 17 15 12 14 16 16 17 21 24 25 27 29 29 28 26 24 22 20 18 17 16 15 14 13 12 12 12 10 9 9 9 10 12 12 12 11 11 11 12 13 13 14 15 15 16 17 16 16 18 16 14 16 17 16 15 13 13 12 11 12 13 13 12 12 12 13 13 13 13 13
12 12 13 14 14 14 13 10 9 8 9 11 13 14 15 16 14 12 13 15 15 16 20 25 26 24 24 25 24 23 23 22 20 19 18 17 15 14 13 13 13 12 11 10 10 11 12 13 14 13 12 12 12 13 14 14 15 16 16 15 16 16 16 18 18 17 17 18 17 16 14 14 13 12 11 12 13 14 14 13 12 11 11 13 13
11 11 12 13 13 13 13 13 12 13 13 13 13 12 11 12 11 11 11 11 12 14 16 20 23 21 19 21 22 23 23 22 20 19 18 17 16 15 14 14 13 12 12 12 12 13 14 15 15 14 12 12 13 13 14 15 16 16 17 16 16 16 16 17 18 19 19 19 18 17 15 14 14 12 11 12 12 14 15 13 11 11 12 13 13
11 11 12 13 12 12 12 13 14 15 15 14 12 10 9 8 7 7 7 7 9 11 12 14 16 17 18 21 23 24 24 22 19 17 16 16 16 15 13 12 12 12 13 14 14 15 16 16 16 14 13 13 13 13 14 15 15 16 17 17 17 17 17 17 18 18 19 19 18 17 16 14 14 13 12 12 12 13 14 13 12 12 12 13 13
12 11 12 13 12 12 12 11 12 13 13 13 12 11 9 8 6 5 6 6 7 8 9 11 13 16 18 21 22 22 22 19 17 16 15 14 13 12 12 12 12 13 14 15 16 16 17 17 17 16 15 14 13 14 15 15 16 16 17 17 17 16 16 16 17 17 18 18 17 16 16 15 14 14 13 13 12 12 12 12 12 12 12 13 13
12 11 11 11 12 12 12 11 11 11 10 11 11 10 8 7 6 5 5 6 7 8 8 8 9 12 16 17 17 18 17 15 14 14 13 11 10 10 11 11 12 13 14 15 16 17 17 18 18 18 16 15 15 15 15 16 17 17 17 18 17 16 16 16 16 16 17 18 17 17 17 16 15 14 13 13 12 11 11 11 12 13 13 12 11
11 10 10 10 11 12 12 12 11 10 9 8 8 7 6 5 4 4 4 5 7 8 8 8 7 8 10 10 10 10 9 8 10 11 11 11 11 11 11 11 12 13 14 16 18 19 20 20 20 20 18 17 16 16 17 17 17 18 18 18 18 18 18 17 16 16 17 17 17 17 18 17 16 15 13 12 12 12 11 12 12 11 10 10 10
10 10 9 9 10 10 10 10 9 8 7 6 6 5 5 4 3 3 2 2 4 5 6 6 5 5 6 6 7 8 8 8 8 11 13 14 15 14 13 13 14 15 16 18 20 21 22 22 23 22 21 19 18 18 18 18 18 19 19 19 20 20 19 18 17 17 16 16 16 16 17 17 16 14 13 12 13 12 11 11 10 9 10 11 12
11 11 11 10 10 9 8 7 7 6 6 5 4 4 3 3 3 3 2 1 1 3 5 6 7 8 9 9 10 12 13 13 13 15 16 15 14 14 14 13 14 16 18 20 21 21 22 23 23 23 22 22 22 22 22 23 22 22 21 20 21 22 22 21 20 19 19 18 17 17 17 17 15 14 13 12 13 12 11 11 11 11 12 13 14
12 12 13 13 12 11 9 7 6 5 5 4 4 3 3 3 3 3 3 3 3 2 3 4 5 8 9 9 10 11 13 14 18 21 20 18 16 14 13 13 14 15 17 19 20 21 22 23 24 24 24 25 26 27 29 30 31 30 28 25 24 23 24 24 24 23 22 20 20 19 18 18 17 16 15 14 13 13 13 13 12 12 12 12 13
14 14 16 16 15 13 11 9 7 6 5 5 5 5 5 5 5 5 5 6 6 6 6 7 7 7 7 8 9 10 10 13 18 21 20 19 18 15 15 15 15 17 19 20 21 21 22 23 23 24 24 25 26 28 31 34 35 36 35 34 33 31 28 27 26 25 24 23 22 20 19 19 19 18 18 16 14 14 15 14 14 13 12 11 11
16 17 17 17 15 14 12 11 10 10 10 9 9 9 8 8 8 8 7 7 7 7 8 8 8 8 8 10 11 11 12 14 17 17 17 17 17 16 17 17 17 19 21 21 22 22 22 23 23 22 23 23 25 26 28 32 34 36 37 37 38 39 38 34 30 27 25 24 24 23 21 20 20 19 18 17 15 15 15 16 16 15 14 12 12
17 17 17 17 16 15 14 13 13 13 13 13 12 11 9 9 8 8 8 7 7 7 8 8 8 8 9 10 11 12 12 13 14 15 15 15 15 16 17 18 19 21 22 22 23 23 23 23 23 23 24 24 25 26 27 29 30 31 33 34 37 40 42 42 40 35 32 28 26 26 24 22 21 21 19 17 16 16 17 17 17 17 16 15 15
17 17 18 18 18 17 16 15 14 13 12 12 11 9 8 7 7 7 7 7 7 8 8 9 9 9 10 11 12 12 12 13 14 15 15 16 16 17 19 20 21 23 24 24 24 24 23 23 24 25 25 25 25 27 28 29 29 28 28 30 32 34 37 41 43 42 39 35 31 29 27 25 24 23 21 20 20 19 18 18 18 18 18 17 17
17 18 18 19 19 18 17 15 13 11 10 8 8 8 7 7 7 7 7 8 8 9 9 10 11 11 11 12 13 14 14 14 16 17 17 18 18 18 20 22 22 24 24 24 24 25 24 25 25 26 25 25 25 27 28 28 27 27 27 28 29 30 31 34 37 40 41 39 36 34 32 30 29 27 25 24 23 22 21 21 19 19 19 19 19
19 19 19 19 19 18 17 15 14 12 11 9 8 8 8 8 8 9 9 9 10 10 11 12 12 13 14 14 15 16 16 15 17 18 18 18 18 18 20 21 22 24 24 23 23 24 24 24 25 25 26 27 26 26 27 26 26 27 28 28 29 30 31 30 31 34 37 36 34 33 33 32 31 30 30 29 27 23 21 22 20 19 20 20 19
20 21 20 20 19 18 17 16 15 14 13 13 12 11 11 12 13 13 13 13 14 14 15 16 16 17 17 17 18 19 18 17 17 18 18 18 18 20 21 21 22 23 23 22 22 23 24 25 26 26 27 27 26 24 23 23 24 26 27 28 29 30 32 30 29 30 31 32 33 32 33 32 32 32 31 32 31 25 21 22 21 19 19 18 16
21 21 21 21 20 19 18 17 16 15 15 15 15 13 14 15 16 15 16 17 18 18 19 19 20 20 21 21 22 22 23 22 21 21 21 20 20 22 24 24 23 23 23 23 23 24 25 25 25 25 26 26 24 23 22 21 22 25 27 27 28 30 30 29 29 30 30 31 32 33 35 36 35 35 34 33 33 29 26 26 25 22 20 18 17
22 23 22 21 19 18 17 17 16 15 15 15 14 14 15 16 16 16 17 18 20 21 21 22 23 23 23 24 24 24 26 25 23 22 23 22 21 23 25 24 24 24 24 23 23 24 24 24 24 24 25 26 25 24 23 21 21 24 25 25 26 28 27 28 30 31 30 29 29 29 32 34 36 37 38 37 38 38 35 31 27 25 24 22 21
24 23 21 19 18 18 17 16 15 14 14 14 14 14 15 16 17 18 19 20 21 22 22 23 25 26 26 26 26 25 26 26 24 23 23 22 22 22 23 23 23 24 23 23 24 24 23 23 23 22 21 22 23 23 24 23 22 22 24 25 25 23 22 24 26 28 28 29 29 28 29 30 31 31 32 33 35 39 41 37 31 28 27 24 23
23 21 19 17 17 17 16 15 14 14 15 14 14 14 15 16 17 18 20 21 22 23 24 25 26 26 26 25 26 26 25 24 24 23 23 22 22 22 23 23 22 23 24 23 23 23 22 22 22 21 19 19 20 20 21 22 22 22 23 25 25 24 23 23 23 23 23 25 26 27 28 29 28 27 26 27 27 30 34 34 33 32 30 27 25
20 19 17 15 14 13 13 14 14 14 15 14 14 14 15 17 18 19 20 22 23 24 25 25 25 25 25 25 24 25 24 23 24 24 23 22 22 23 24 24 23 24 24 23 23 23 23 23 23 22 20 21 21 20 19 20 20 22 24 26 27 28 27 26 25 25 24 23 24 25 26 26 27 26 25 26 26 26 26 28 29 31 32 30 29
18 17 17 16 14 13 14 14 14 14 14 13 13 14 15 17 19 20 20 22 23 24 24 23 23 23 23 22 22 22 22 21 21 22 21 21 20 21 23 25 26 25 23 21 22 24 24 24 24 23 21 21 20 20 20 20 20 21 23 25 27 28 28 27 27 27 27 26 25 25 25 24 25 26 25 25 26 26 26 26 26 28 29 30 31
16 15 15 15 14 14 15 15 14 14 13 13 14 15 16 18 19 20 21 22 22 22 21 20 20 20 20 20 20 19 20 20 20 20 19 19 19 19 19 21 23 23 22 22 23 24 25 26 26 27 26 25 24 24 24 24 23 23 23 24 24 24 25 27 29 28 28 28 27 27 27 26 25 25 25 25 25 25 25 26 25 26 27 28 30
15 15 14 13 13 14 14 14 13 12 11 12 14 15 17 18 19 19 20 20 19 18 18 17 18 18 19 19 19 19 20 21 21 21 20 20 21 20 20 21 22 22 23 24 24 25 27 29 29 30 31 31 31 31 30 30 30 30 30 29 27 25 25 27 29 29 28 28 28 28 28 27 27 27 27 26 25 24 24 25 25 24 25 26 28
14 13 12 11 11 10 10 10 11 10 10 12 14 15 17 18 18 17 17 17 16 16 15 16 17 17 18 18 19 20 21 21 22 22 21 21 20 19 18 18 18 17 19 21 24 25 27 28 27 27 27 27 27 28 28 29 29 29 30 31 30 29 30 31 31 30 29 29 29 29 29 29 30 30 29 27 27 26 25 25 25 25 24 24 26
10 8 8 8 8 8 9 10 11 12 13 14 15 16 16 16 16 15 15 15 14 14 14 15 15 16 16 17 19 20 21 21 21 20 19 17 16 15 16 16 16 17 20 21 23 23 24 24 23 22 23 24 25 27 28 28 27 27 27 28 29 30 31 31 32 32 31 30 30 30 30 30 31 31 31 30 29 28 27 26 26 26 24 24 25
8 8 9 10 11 12 14 14 14 15 16 15 16 16 14 13 14 13 12 12 12 12 14 15 15 15 16 18 19 20 20 20 19 18 17 18 19 19 19 19 19 21 21 22 22 23 23 24 24 24 24 25 25 25 26 26 26 26 26 26 26 28 29 30 30 31 31 31 31 30 30 30 31 31 31 30 30 30 29 29 28 27 26 25 24
10 11 13 14 15 16 16 16 16 17 16 15 14 13 11 10 11 12 11 10 10 12 14 15 15 16 16 16 17 18 19 19 20 21 23 25 26 25 24 24 24 24 24 25 26 27 26 25 24 24 24 24 24 23 23 23 24 24 25 25 25 26 27 28 29 30 31 31 31 31 31 30 31 31 30 30 31 30 30 30 30 29 28 27 25
13 14 15 15 15 15 15 15 14 13 12 12 11 10 10 10 11 11 10 10 11 13 13 13 13 14 15 16 16 17 19 22 24 26 27 27 28 28 27 28 28 28 28 29 28 28 27 24 23 23 23 23 23 23 24 24 24 24 24 24 25 25 26 26 27 28 30 30 31 31 31 30 30 29 29 30 31 30 31 32 31 30 29 28 27
14 14 14 13 12 12 12 12 11 10 9 9 9 9 10 10 11 9 8 9 13 14 13 11 10 11 12 15 17 18 21 23 25 26 27 28 28 29 29 29 29 29 29 28 26 26 25 23 23 23 23 23 24 24 24 24 24 24 24 24 25 25 26 26 27 27 28 29 29 30 30 29 29 29 29 30 30 30 31 32 31 31 31 30 28
13 12 11 10 9 9 10 10 9 8 8 8 8 8 9 10 9 7 6 10 14 15 12 10 11 13 13 15 18 20 21 23 25 26 27 28 28 28 28 28 28 28 27 25 24 24 23 23 23 24 24 24 25 25 25 24 24 24 23 24 24 25 25 26 26 26 27 27 27 27 28 28 29 28 29 29 29 30 31 31 31 32 32 31 30
9 8 8 8 8 8 8 8 7 7 7 7 7 7 7 9 9 9 9 10 12 13 12 12 13 14 15 15 16 19 21 23 25 25 25 26 26 26 27 27 26 26 25 23 23 23 23 23 24 24 24 24 24 24 25 25 24 24 24 24 25 24 25 25 26 27 28 27 27 27 27 27 28 28 28 29 29 30 31 30 31 32 32 30 30
6 6 7 7 7 6 7 7 7 6 5 6 6 6 7 8 10 10 11 11 11 11 11 12 13 15 16 16 17 20 22 24 24 23 23 23 23 24 26 25 24 22 21 21 21 22 22 22 23 23 24 24 24 24 25 25 25 25 25 26 26 25 25 25 25 27 28 29 29 28 28 28 28 28 28 28 29 30 30 30 30 32 31 30 30
5 5 5 6 6 6 6 6 6 6 6 6 6 6 7 8 9 9 9 9 9 10 11 11 13 16 17 17 18 21 23 24 24 23 22 22 23 24 23 21 20 18 17 18 19 20 20 21 22 23 24 24 24 24 25 25 25 25 25 26 26 27 27 27 27 27 28 29 30 30 30 30 30 29 29 28 28 28 29 29 30 30 30 30 30
5 5 5 6 6 6 6 6 7 7 7 8 8 7 8 8 8 9 9 8 9 9 10 11 14 15 16 16 19 22 25 25 25 24 24 24 24 22 19 17 18 19 19 19 19 19 20 20 21 22 23 24 24 24 24 25 25 25 26 26 27 27 28 29 29 29 29 29 31 31 31 31 31 31 30 29 29 29 29 29 29 29 30 30 29
6 7 7 7 7 7 6 6 7 7 8 8 8 8 8 8 8 9 9 8 9 9 9 11 13 15 16 17 21 25 27 28 27 26 25 25 23 20 17 17 18 19 20 20 21 21 21 21 21 22 23 24 24 24 25 25 25 25 26 27 28 28 29 29 30 30 30 30 31 31 32 32 32 32 31 30 29 30 30 29 28 29 30 30 26
5 7 9 9 7 7 7 7 7 7 7 7 7 8 8 8 8 8 8 8 9 9 9 10 11 12 14 17 20 23 26 27 25 25 25 23 20 18 17 18 19 19 20 21 22 22 23 23 23 23 24 24 25 25 25 25 26 26 26 27 28 29 29 29 29 30 32 32 31 30 32 33 32 31 31 31 30 29 30 30 28 28 29 29 26
4 6 9 10 7 6 8 8 7 7 7 7 7 8 8 9 9 9 9 9 9 9 10 10 9 9 11 15 18 21 22 21 19 19 21 20 19 18 18 17 18 19 20 21 21 22 24 24 24 25 26 25 25 25 26 28 30 29 28 28 28 29 29 29 28 29 31 33 33 31 32 35 35 33 32 32 31 29 29 30 29 28 29 30 30
4 5 8 9 8 7 7 7 7 7 7 7 8 8 8 9 9 10 10 10 10 10 10 10 10 10 11 14 17 19 19 18 16 17 18 18 19 19 18 18 19 19 20 21 21 22 23 24 25 27 28 26 25 26 28 29 31 31 31 31 31 31 31 30 30 30 32 33 34 33 32 34 36 35 32 31 32 31 29 29 29 29 29 30 30
5 5 6 7 8 7 6 6 7 7 7 7 8 8 8 8 8 9 10 10 10 11 10 10 11 11 11 14 19 20 17 15 15 16 17 17 17 18 18 19 20 20 21 22 21 23 25 26 26 28 28 26 25 27 28 28 29 30 31 32 31 31 31 31 30 32 33 33 34 34 32 32 34 35 32 31 31 31 30 30 29 28 29 30 29
6 6 6 6 7 7 7 7 7 7 7 7 8 8 8 8 8 8 9 10 10 11 11 11 12 12 12 16 20 20 15 13 15 16 17 17 17 17 18 20 22 22 23 23 24 27 30 29 28 28 27 26 26 27 28 29 30 30 30 31 31 30 31 30 30 32 34 34 34 34 33 33 35 34 33 32 31 31 31 31 29 28 29 29 28
5 6 6 6 7 7 7 7 7 7 8 8 8 8 8 8 8 9 9 10 11 11 11 12 13 13 14 17 19 18 15 14 16 17 17 18 19 19 20 22 23 25 26 27 28 30 31 29 28 28 27 26 26 26 27 28 28 28 30 32 32 31 30 29 29 30 31 33 34 34 34 35 36 35 33 32 31 30 31 30 29 28 28 29 30
5 6 6 6 6 7 7 7 7 8 8 7 7 7 8 9 9 10 10 11 12 12 12 13 14 15 15 17 18 18 17 17 17 18 18 19 20 20 21 22 24 29 33 33 31 30 29 28 28 29 28 27 27 26 26 27 27 27 28 30 30 30 30 30 30 30 30 31 33 34 34 35 35 35 34 34 33 31 31 30 29 28 28 27 29
6 6 6 7 7 7 7 7 7 7 8 8 7 8 9 9 10 10 11 12 12 12 13 13 14 15 16 17 17 18 18 18 18 18 19 19 20 21 22 24 26 29 32 32 30 28 28 29 30 30 29 28 28 26 25 26 26 25 25 26 27 28 29 30 31 32 33 33 33 34 34 34 34 34 34 34 32 31 31 30 28 29 29 27 28
6 6 6 6 7 7 7 7 7 7 8 8 9 9 9 10 10 10 11 12 12 12 13 13 14 14 15 16 17 18 18 19 19 19 19 20 20 21 22 25 27 29 30 31 31 31 30 31 32 31 30 29 28 27 27 27 26 24 22 22 23 24 25 25 26 29 31 32 32 33 33 33 34 36 36 33 30 29 31 30 29 30 30 29 28
6 7 7 6 6 6 6 7 7 7 8 8 9 10 10 10 11 11 10 11 12 12 12 13 14 14 15 16 17 18 18 19 19 20 20 20 21 22 23 26 30 33 32 32 35 37 35 34 34 34 33 30 28 27 28 29 27 25 22 20 19 18 18 18 20 24 27 28 28 30 31 32 33 35 36 33 30 29 30 29 29 30 31 30 30
7 7 7 7 6 6 7 7 7 8 8 8 9 10 10 10 11 11 11 12 12 13 13 14 14 15 15 16 17 17 18 19 19 20 21 21 22 23 23 26 31 34 33 34 39 44 43 39 38 38 37 33 29 28 31 33 32 29 25 22 19 17 14 15 17 20 23 25 26 26 27 29 31 32 33 34 32 30 30 29 28 29 29 29 30
7 7 7 7 7 8 8 8 8 9 9 9 9 10 10 10 11 12 12 12 13 14 14 14 15 16 16 16 17 18 19 19 20 21 22 22 23 24 24 26 30 33 34 37 42 46 47 46 45 45 43 37 30 29 34 38 36 33 29 25 22 18 13 16 19 20 21 24 26 26 24 26 29 29 30 33 33 30 29 29 29 28 27 26 27
8 8 8 8 8 8 8 9 9 10 10 10 10 10 11 11 11 12 13 13 13 14 15 15 16 17 17 17 18 19 19 20 20 21 22 23 24 25 26 27 30 33 37 40 43 46 49 52 51 50 48 41 33 31 36 40 40 38 34 29 25 19 11 14 21 24 23 23 25 26 24 23 26 27 27 30 30 29 29 30 28 27 28 27 26
8 8 9 9 9 9 9 10 10 10 10 10 10 10 11 11 12 12 13 13 13 14 15 15 16 17 17 18 18 19 20 21 21 21 22 23 25 26 27 28 29 32 35 40 44 47 51 54 54 53 51 45 36 32 37 43 44 41 37 33 28 21 12 8 16 24 27 26 27 27 25 24 25 25 25 27 28 28 30 32 30 26 26 27 27
Wind_Direction
347 336 332 329 329 328 319 294 273 261 255 255 259 261 262 262 255 238 231 236 235 230 225 216 210 212 211 210 213 213 210 211 210 209 212 215 217 218 217 217 221 225 227 231 236 244 250 253 257 258 258 260 262 266 269 269 268 267 265 263 261 258 257 261 268 275 277 277 279 280 282 285 287 289 292 295 298 300 301 301 302 301 300 299 296
350 341 335 332 331 330 327 322 307 293 285 280 278 275 272 272 264 244 241 246 238 229 226 221 218 216 214 214 216 215 213 213 212 212 214 216 218 221 222 224 228 230 232 238 245 250 251 251 256 258 256 255 257 262 267 270 269 267 265 262 260 257 255 259 266 273 277 277 279 281 280 282 284 285 285 288 294 298 298 297 297 296 295 295 293
358 349 340 336 336 334 332 329 322 314 308 304 298 289 280 276 268 257 254 253 244 235 228 227 229 226 221 220 218 218 220 219 217 216 216 218 222 224 225 229 234 236 241 246 251 254 253 251 252 254 252 251 254 259 264 266 265 264 263 261 260 259 256 256 261 268 274 277 278 280 281 280 280 281 282 283 286 290 293 294 293 291 290 288 286
1 355 347 341 338 338 336 332 326 321 317 315 312 304 295 282 270 265 265 256 245 240 231 226 228 226 225 227 223 220 222 221 219 218 221 225 228 228 228 230 234 240 245 249 252 253 254 253 252 252 250 250 254 258 261 261 260 261 261 259 258 258 256 255 257 262 269 274 276 278 280 279 278 279 281 280 278 281 286 290 289 287 286 285 281
1 357 351 346 343 342 340 334 328 324 319 318 316 312 306 296 283 278 279 271 254 241 232 228 228 228 230 232 229 225 224 222 220 223 226 225 224 225 229 233 240 246 249 251 252 251 252 253 253 252 251 251 254 257 260 260 259 259 260 260 259 258 256 254 255 258 263 269 272 274 276 277 275 275 276 276 276 276 278 281 283 284 285 284 280
3 1 358 354 351 349 345 339 333 326 319 316 313 308 304 297 289 282 280 275 263 252 243 232 228 230 233 234 233 230 225 218 217 219 216 210 210 220 232 241 249 253 255 255 255 254 255 255 255 253 251 251 253 255 258 259 259 260 259 259 259 259 258 256 255 257 260 264 269 271 272 272 272 272 271 270 273 275 277 280 281 280 280 280 280
3 3 3 359 356 354 349 344 338 332 325 319 315 312 308 301 297 286 264 252 251 252 248 239 230 230 234 233 230 227 220 211 210 210 204 206 216 226 235 244 250 255 259 261 260 260 260 259 256 254 252 252 253 254 257 258 258 258 258 259 259 258 258 257 256 257 258 261 264 266 269 270 269 269 268 267 269 269 270 274 276 277 277 279 283
356 355 355 355 354 350 345 341 337 333 333 329 327 331 330 330 332 322 289 228 221 221 217 215 212 209 214 218 218 223 226 219 215 218 220 224 231 238 244 250 254 258 262 265 265 263 261 259 256 254 253 253 252 254 256 258 259 258 256 257 260 260 259 258 256 256 258 260 262 264 267 269 269 268 266 264 264 264 262 265 273 281 283 282 281
345 344 343 342 342 338 333 334 333 332 335 337 343 351 355 360 360 351 351 340 235 212 204 203 204 206 212 219 223 228 231 228 229 233 233 234 240 245 252 257 260 262 262 263 263 261 260 259 257 255 255 255 255 255 254 253 254 256 256 256 258 259 258 258 257 258 260 261 261 263 265 266 268 269 267 264 264 269 271 269 271 276 280 281 278
333 333 332 331 329 325 322 323 325 328 334 336 344 350 353 359 356 347 345 340 326 299 267 253 240 233 230 228 226 228 229 232 239 243 242 243 246 249 254 257 259 262 262 262 261 259 258 258 258 258 258 259 258 257 254 252 250 251 253 253 254 256 257 256 256 257 259 261 261 262 263 264 265 266 268 268 270 273 273 271 270 272 276 278 277
318 318 321 321 319 316 314 313 313 317 323 323 321 323 324 324 319 315 316 314 310 303 295 290 279 270 267 260 254 250 247 250 254 255 253 254 257 259 261 261 261 262 261 260 259 259 259 259 259 260 260 260 259 258 256 255 253 251 252 251 250 249 251 254 256 256 257 258 260 260 260 261 262 263 265 266 267 269 269 269 269 270 272 274 276
309 311 314 314 313 312 307 303 301 302 305 306 305 306 308 308 306 307 309 307 304 299 293 289 282 278 279 278 273 268 267 273 276 273 269 267 268 268 266 264 264 263 262 260 260 261 261 260 261 261 261 259 258 258 259 258 255 253 253 253 251 248 246 246 249 253 255 257 258 257 257 260 261 260 259 260 263 266 268 269 268 267 267 269 271
304 306 309 309 309 307 303 297 295 297 301 301 300 301 301 302 306 309 310 310 309 304 299 295 289 285 282 280 277 272 271 277 282 280 277 276 276 273 269 266 265 264 263 263 262 262 262 263 263 262 261 259 257 256 257 259 258 254 251 251 253 252 248 244 244 245 248 253 256 256 256 259 260 258 256 256 259 264 265 266 266 264 262 263 266
298 299 301 302 303 303 300 298 297 300 302 299 296 297 298 300 306 307 305 304 303 302 300 297 293 289 287 285 282 279 275 272 271 271 270 271 274 275 272 268 265 264 264 263 263 263 262 262 262 262 261 259 257 257 256 257 259 257 251 245 244 247 248 247 245 244 243 245 250 254 255 256 257 257 257 256 256 257 259 262 264 265 264 264 266
292 292 295 298 299 299 298 298 297 298 297 291 288 291 293 295 298 299 299 299 299 300 300 298 296 292 290 288 286 284 281 275 271 268 267 270 275 277 273 268 264 262 261 260 260 261 260 260 260 261 260 258 258 259 259 258 257 256 254 249 244 242 243 244 244 242 240 240 244 249 253 254 254 254 254 255 255 252 253 258 265 269 270 267 266
290 290 292 293 295 295 295 295 296 294 292 287 285 289 293 297 299 300 299 299 299 299 299 297 296 294 292 292 290 288 286 284 281 275 271 273 275 274 272 268 264 262 261 259 258 257 257 257 257 258 259 260 259 259 259 260 259 257 257 256 253 249 246 243 241 240 239 239 241 246 249 251 252 251 250 251 254 252 251 254 258 262 263 261 259
289 289 289 289 291 290 288 292 294 293 294 292 290 292 294 296 298 297 297 298 299 299 299 297 296 295 294 293 292 291 291 290 287 282 276 274 273 274 274 272 268 266 263 261 261 259 258 258 258 260 261 262 262 260 259 259 258 256 256 257 257 255 253 251 249 246 244 245 246 249 250 251 252 250 247 247 250 251 251 251 252 257 260 257 255
289 289 288 288 288 285 285 290 291 288 288 290 291 291 292 293 295 294 295 297 297 297 297 296 295 295 294 294 293 292 291 289 288 285 282 278 274 274 276 274 271 269 267 266 265 263 262 261 259 259 261 262 263 263 263 261 256 253 254 256 257 257 256 256 255 253 253 254 253 252 251 252 252 250 247 245 245 246 248 249 252 256 257 253 253
291 291 289 286 283 282 285 289 286 280 280 283 284 286 290 292 293 293 294 296 297 297 297 296 296 295 294 294 292 290 289 288 287 285 285 283 279 275 274 272 269 268 268 267 266 264 264 263 261 259 261 263 265 265 265 264 258 252 252 254 256 257 258 258 256 254 255 255 252 248 246 247 248 249 249 249 248 249 249 249 248 249 249 247 249
295 294 290 281 276 279 284 284 280 276 277 280 280 282 287 290 292 294 296 296 297 298 298 298 298 296 294 293 291 289 289 288 287 287 286 284 281 276 272 270 268 269 269 268 269 269 269 268 268 267 266 266 265 263 262 261 260 256 255 255 256 259 264 264 262 261 260 258 255 251 248 245 245 247 248 247 246 246 247 245 241 240 240 241 242
298 295 290 284 281 283 284 281 277 274 276 277 278 281 285 288 292 295 296 296 297 298 299 298 296 295 294 293 292 291 291 290 289 288 286 283 280 274 270 267 267 269 271 272 273 276 276 276 277 278 279 277 273 267 261 260 260 259 258 258 258 262 268 272 272 271 270 266 261 256 252 249 248 247 247 244 239 236 237 237 233 231 233 234 235
298 293 289 288 288 288 284 280 277 275 276 277 278 282 285 288 291 294 294 296 297 297 297 296 295 295 295 295 293 292 292 291 290 288 286 284 281 275 271 270 271 274 277 278 278 279 279 277 276 277 277 276 276 274 269 265 262 259 258 260 263 265 267 270 271 270 268 267 262 255 252 251 248 245 245 245 242 235 232 230 227 226 228 229 230
300 296 293 290 288 286 285 283 279 276 277 278 278 281 284 288 293 295 297 297 296 296 297 297 296 296 296 295 295 294 293 292 292 292 290 287 285 280 275 272 271 273 277 281 282 282 280 279 278 278 277 275 273 272 269 264 261 257 254 256 259 261 262 263 264 263 263 263 260 255 252 250 247 244 242 243 242 239 234 233 230 228 227 227 227
305 303 301 297 293 291 290 289 286 284 284 284 283 283 287 292 296 298 298 298 297 297 299 299 297 296 296 297 296 295 294 293 292 292 293 293 294 291 284 276 272 274 279 283 283 282 281 281 279 279 280 280 276 273 270 267 263 260 255 251 252 255 257 256 256 256 255 255 255 253 251 249 246 244 242 241 241 240 237 235 234 233 232 230 229
308 307 304 300 298 297 294 291 290 288 286 286 286 288 292 296 300 301 299 298 299 301 302 299 297 297 299 299 298 296 295 294 293 294 295 296 297 295 291 286 283 282 283 283 282 280 279 279 278 279 280 280 278 276 275 272 268 266 263 260 257 255 252 250 251 250 248 247 247 247 247 245 243 241 242 242 243 243 241 237 236 236 237 237 236
317 315 312 311 310 306 300 298 297 292 286 286 290 294 298 302 305 304 302 303 306 307 305 302 301 302 302 301 299 298 297 296 295 295 294 295 297 299 300 296 291 288 287 285 282 281 281 280 280 280 280 279 277 274 271 270 268 267 264 260 256 251 247 245 244 243 243 242 241 240 241 241 240 239 239 240 241 241 241 239 237 236 236 238 238
324 324 325 324 318 309 302 300 299 295 294 296 298 300 305 309 310 309 310 314 318 315 309 306 305 304 303 301 299 298 297 296 296 298 303 309 313 315 312 305 298 295 293 289 285 284 285 285 284 280 278 277 273 269 266 265 265 262 258 253 248 245 243 240 238 238 239 239 239 239 239 239 239 237 236 235 236 237 237 238 239 238 235 236 238
315 317 318 314 310 308 306 303 300 299 302 304 304 308 316 316 312 311 318 325 326 320 313 309 306 304 302 301 301 301 299 299 300 307 316 320 318 313 307 301 297 295 291 290 292 293 292 289 286 281 278 274 270 266 262 259 257 254 251 247 245 243 240 238 236 236 236 236 237 238 238 237 237 236 233 232 232 232 233 235 237 238 236 234 237
314 316 316 315 316 316 314 310 308 306 306 307 308 318 330 323 310 309 315 316 314 313 309 305 305 306 304 302 303 304 301 299 300 304 307 307 305 304 300 295 293 291 287 288 292 291 287 283 280 276 273 268 265 263 260 257 256 253 249 246 245 243 240 238 236 235 234 234 234 235 235 235 235 234 232 232 231 230 231 232 234 236 235 233 235
320 319 320 321 322 321 317 315 314 313 313 316 318 324 332 323 310 307 308 307 309 311 310 306 306 308 305 302 302 302 299 298 300 301 302 302 301 300 297 293 291 288 286 287 287 283 280 278 275 271 268 264 262 260 259 258 257 255 252 248 245 243 241 239 237 236 234 234 234 234 234 234 234 232 231 232 232 230 230 231 232 232 231 230 233
323 322 325 327 327 326 322 322 325 327 332 340 338 330 325 321 313 310 314 319 320 321 320 317 319 322 318 310 307 304 302 302 304 305 304 304 303 301 298 295 292 289 287 287 283 278 276 274 270 266 263 261 261 260 259 259 257 255 253 250 247 244 242 239 237 235 234 234 234 235 234 234 233 233 232 231 231 231 230 230 230 230 230 229 231
323 326 330 331 333 336 333 330 335 339 343 346 341 327 321 323 323 324 331 331 328 328 334 340 342 342 336 325 316 311 309 309 309 309 307 306 305 303 301 298 295 293 292 287 279 274 271 269 267 266 265 262 261 260 260 258 257 256 255 252 250 247 243 240 237 235 234 233 233 233 234 234 234 233 232 232 232 232 231 230 229 228 228 228 229
329 334 336 335 337 342 339 335 338 344 343 337 328 318 319 329 335 337 340 339 335 332 339 348 350 345 338 331 324 319 318 320 320 320 318 315 312 310 308 304 300 297 292 284 275 271 270 268 267 267 266 265 263 262 260 257 256 255 255 254 252 249 246 243 241 238 236 235 233 232 231 231 231 232 232 231 232 231 230 230 230 228 226 226 227
339 343 348 348 342 340 341 339 341 343 337 323 313 311 320 332 337 336 336 338 338 336 339 346 349 348 346 343 338 335 335 336 334 332 329 326 324 322 317 309 302 296 288 277 271 271 272 270 269 268 267 265 264 263 261 258 255 254 253 252 251 251 249 246 242 239 236 235 233 232 230 228 228 229 229 229 229 229 229 229 230 228 226 224 224
347 349 360 359 347 342 344 341 339 341 335 323 318 318 323 329 331 328 326 326 328 334 338 340 342 349 353 350 343 343 346 349 349 349 346 341 336 330 323 314 309 306 297 285 279 279 278 276 275 274 271 269 267 266 264 262 259 255 253 251 250 249 247 244 242 240 237 234 232 231 230 228 226 225 226 226 226 226 226 227 228 229 228 225 222
1 359 2 358 347 344 342 338 340 344 337 329 325 323 321 321 318 315 316 319 323 329 332 331 335 343 350 350 348 350 354 357 358 359 357 352 346 337 327 319 316 312 305 298 292 287 284 281 279 278 275 272 270 268 265 264 262 259 256 253 250 248 246 242 240 239 237 235 233 229 227 227 225 224 224 224 224 224 225 225 226 227 227 226 222
14 9 4 357 349 344 339 339 346 345 335 327 329 329 325 322 318 316 318 323 325 324 324 328 334 339 344 348 351 354 359 2 2 359 355 353 351 343 331 321 316 310 306 304 301 296 291 286 282 279 278 275 272 269 266 264 262 259 257 254 251 249 246 243 239 237 236 235 233 229 226 225 223 222 222 222 223 223 223 224 226 226 225 226 226
27 20 8 0 352 347 348 353 355 350 341 338 341 341 336 332 333 332 332 332 329 325 325 329 331 333 337 342 345 348 353 357 358 354 350 347 343 335 327 320 314 307 302 301 300 298 296 293 287 282 280 277 275 272 268 266 264 261 258 256 253 250 247 244 241 238 236 234 232 228 225 222 221 219 219 220 222 222 221 222 225 226 223 223 225
34 26 14 7 359 353 359 4 1 356 354 352 351 351 351 351 351 348 346 343 339 334 330 329 330 335 341 343 342 341 341 340 337 334 336 337 333 327 322 317 313 309 305 302 299 297 295 294 292 288 284 281 278 275 272 271 270 267 261 257 254 251 248 244 240 238 236 233 231 229 225 221 220 219 218 218 220 221 221 222 223 224 223 220 219
20 25 18 12 5 360 5 8 4 2 2 359 358 1 2 360 356 352 349 347 342 337 335 334 337 343 344 341 339 335 328 322 320 320 323 328 330 329 325 318 312 311 310 306 303 300 297 294 293 292 291 287 283 280 279 277 275 271 266 260 257 254 250 245 241 238 236 233 230 229 227 221 218 219 220 219 218 218 220 221 223 225 225 222 217
15 23 22 15 8 6 12 14 10 7 5 3 6 7 3 358 353 349 347 346 342 341 341 341 342 342 338 337 339 335 324 317 321 323 321 323 327 330 331 328 322 320 319 317 316 315 312 305 298 294 294 293 289 286 285 282 279 276 271 265 260 256 252 247 241 238 236 232 227 226 225 221 217 218 221 221 218 216 217 220 222 225 225 223 218
20 22 22 18 15 15 16 13 9 8 8 11 13 8 357 352 351 349 347 347 345 343 341 342 342 341 336 337 341 341 334 327 326 325 324 326 327 328 330 332 332 329 326 322 322 324 324 319 309 301 297 296 295 292 290 289 286 282 276 270 264 259 253 248 241 236 234 232 226 222 220 219 216 216 220 222 221 218 214 215 220 224 224 221 216
26 30 29 26 22 21 17 12 12 14 12 9 6 1 353 351 354 355 352 350 348 345 342 343 343 341 339 340 343 344 342 338 333 330 329 331 330 329 330 332 333 335 335 334 331 330 328 324 317 310 305 303 301 298 296 295 293 286 279 274 268 261 254 249 242 234 230 228 225 220 215 214 214 214 218 224 224 219 213 212 218 223 223 219 214
31 35 36 31 26 25 23 17 15 14 7 358 358 1 1 360 2 1 357 353 351 348 346 346 345 342 342 344 346 346 343 339 336 335 334 335 335 334 333 332 336 342 348 347 341 333 329 325 320 316 314 312 309 304 301 301 299 292 284 277 270 263 256 250 244 236 228 223 221 218 214 212 211 213 217 222 223 219 214 212 215 221 222 219 213
35 35 36 34 30 29 27 21 16 12 7 4 6 9 8 7 6 4 360 356 353 349 346 347 347 345 344 345 345 344 341 338 337 337 337 338 338 337 335 336 338 341 345 345 339 332 330 330 327 322 318 317 316 313 310 310 308 301 290 281 274 268 261 252 245 238 229 223 219 215 212 210 209 210 214 217 217 216 213 212 214 219 219 215 211
39 35 35 35 33 31 27 21 15 12 12 12 12 10 10 10 8 4 1 357 352 347 347 348 347 345 345 344 344 342 340 340 341 341 339 337 337 336 335 336 338 338 339 340 340 337 333 333 333 330 325 322 321 321 320 319 317 311 300 290 284 278 268 257 246 236 228 224 219 214 211 210 209 210 213 214 212 212 212 212 214 216 215 212 210
43 37 34 33 30 29 28 23 17 13 15 18 15 12 11 10 6 3 1 358 353 349 349 350 348 346 345 343 342 342 342 342 342 341 338 336 337 336 334 336 342 344 341 340 344 345 342 339 339 338 335 329 326 327 331 331 330 327 319 310 304 296 280 261 245 234 227 224 219 214 210 209 209 211 213 213 212 213 213 214 215 215 212 209 209
44 41 36 31 28 27 27 24 20 17 17 18 16 12 8 8 7 4 1 359 357 354 353 351 350 349 346 344 343 343 343 342 341 341 340 339 339 337 334 336 343 345 341 339 346 351 350 346 345 346 345 339 332 332 339 341 341 341 335 326 318 310 286 255 238 232 227 222 217 213 209 206 207 208 208 209 212 213 212 215 218 216 210 205 205
46 43 38 33 30 28 26 23 22 21 17 14 14 13 9 7 8 6 2 359 359 358 355 352 351 350 346 345 345 344 343 343 342 342 341 341 340 339 337 336 340 343 344 345 349 352 352 351 352 353 353 347 338 337 343 346 347 347 345 339 334 324 289 245 231 229 227 221 216 213 207 203 204 205 204 206 211 212 211 215 219 215 209 206 205
48 43 40 35 30 27 25 22 21 22 18 13 12 13 10 7 8 7 3 360 360 359 356 353 351 350 348 347 347 346 345 344 343 341 342 341 340 340 339 338 339 343 347 349 350 351 352 354 356 357 356 352 344 342 347 349 349 350 350 348 346 341 309 248 228 223 221 218 214 210 204 201 204 205 202 205 209 210 211 214 215 209 205 207 208
49 43 39 36 31 27 26 22 20 20 17 13 12 11 9 8 7 6 3 0 359 357 356 354 352 351 350 349 349 347 346 345 343 341 342 342 341 340 339 338 338 341 345 349 352 353 354 355 357 357 357 354 349 347 350 352 351 352 354 354 354 351 335 270 229 219 215 213 211 208 203 202 203 204 201 203 207 209 211 213 214 208 202 204 208